TimeEST,TemperatureF,Dew PointF,Humidity,Sea Level PressureIn,VisibilityMPH,Wind Direction,Wind SpeedMPH,Gust SpeedMPH,PrecipitationIn,Events,Conditions,WindDirDegrees,DateUTC
12:53 AM,71.1,66.9,87,30.04,10.0,NNE,8.1,-,N/A,,Clear,20,2012-11-17 05:53:00
1:53 AM,71.1,66.9,87,30.03,10.0,NNE,8.1,-,N/A,,Clear,20,2012-11-17 06:53:00
2:53 AM,71.1,68.0,90,30.01,10.0,NNE,10.4,-,N/A,,Clear,20,2012-11-17 07:53:00
3:53 AM,71.1,68.0,90,30.02,10.0,NNE,6.9,-,N/A,,Clear,30,2012-11-17 08:53:00
4:53 AM,71.1,68.0,90,30.02,10.0,NNE,8.1,-,N/A,,Clear,30,2012-11-17 09:53:00
5:35 AM,69.8,68.0,94,30.03,10.0,NNE,10.4,-,N/A,,Partly Cloudy,30,2012-11-17 10:35:00
5:53 AM,70.0,68.0,93,30.04,10.0,NNE,10.4,-,N/A,,Partly Cloudy,20,2012-11-17 10:53:00
6:53 AM,70.0,66.9,90,30.04,10.0,NNE,10.4,-,N/A,,Scattered Clouds,30,2012-11-17 11:53:00
7:53 AM,71.1,68.0,90,30.06,10.0,NNE,10.4,-,N/A,,Clear,30,2012-11-17 12:53:00
8:16 AM,71.6,66.2,83,30.06,10.0,NE,9.2,18.4,N/A,,Partly Cloudy,40,2012-11-17 13:16:00
8:53 AM,71.1,68.0,90,30.07,10.0,NNE,10.4,-,N/A,,Clear,30,2012-11-17 13:53:00
9:04 AM,71.6,66.2,83,30.08,10.0,NE,11.5,18.4,N/A,,Partly Cloudy,40,2012-11-17 14:04:00
9:44 AM,73.4,68.0,83,30.08,10.0,NNE,12.7,19.6,N/A,,Mostly Cloudy,20,2012-11-17 14:44:00
9:53 AM,73.0,66.9,81,30.09,10.0,NE,13.8,19.6,N/A,,Mostly Cloudy,40,2012-11-17 14:53:00
10:36 AM,73.4,68.0,83,30.08,10.0,NNE,10.4,19.6,N/A,,Scattered Clouds,30,2012-11-17 15:36:00
10:53 AM,73.9,66.9,79,30.09,10.0,NE,11.5,-,N/A,,Clear,50,2012-11-17 15:53:00
11:53 AM,75.9,68.0,76,30.06,10.0,NNE,12.7,19.6,N/A,,Clear,30,2012-11-17 16:53:00
12:53 PM,75.9,66.9,74,30.05,10.0,NE,12.7,18.4,N/A,,Clear,40,2012-11-17 17:53:00
1:53 PM,75.9,68.0,76,30.03,10.0,NE,9.2,-,N/A,,Clear,40,2012-11-17 18:53:00
2:53 PM,75.9,68.0,76,30.02,10.0,NE,8.1,-,N/A,,Clear,40,2012-11-17 19:53:00
3:53 PM,77.0,68.0,74,30.02,10.0,NNE,9.2,-,N/A,,Clear,30,2012-11-17 20:53:00
4:53 PM,75.9,66.0,71,30.02,10.0,ENE,6.9,-,N/A,,Clear,60,2012-11-17 21:53:00
5:53 PM,75.0,66.0,73,30.02,10.0,NE,6.9,-,N/A,,Clear,50,2012-11-17 22:53:00
6:53 PM,73.9,66.9,79,30.04,10.0,ENE,3.5,-,N/A,,Clear,60,2012-11-17 23:53:00
7:53 PM,73.9,66.0,76,30.04,10.0,NE,5.8,-,N/A,,Clear,40,2012-11-18 00:53:00
8:53 PM,73.9,68.0,82,30.05,10.0,NE,5.8,-,N/A,,Clear,40,2012-11-18 01:53:00
9:53 PM,73.9,69.1,85,30.06,10.0,NNE,10.4,-,N/A,,Mostly Cloudy,30,2012-11-18 02:53:00
10:53 PM,73.0,68.0,84,30.06,10.0,NNE,6.9,-,N/A,,Clear,30,2012-11-18 03:53:00
11:53 PM,73.0,68.0,84,30.05,10.0,NNE,8.1,-,N/A,,Clear,20,2012-11-18 04:53:00